FW4407 Weather Reports


time (UTC)temp
C
wind
direction
speed
KPH
gust
KPH
rain 1hr
cm
rain 24hr
cm
rain mn
cm
humidity
%
barometer
mb
20260504081529 15 358 3.2 12.9 0.00 0.00 0.00 43 1018.2
20260504080517 16 12 1.6 8.0 0.00 0.00 0.00 42 1018.1
20260504050542 12 0.0 0.0 0.00 0.05 0.00 59 1017.4
20260504045526 11 0.0 0.0 0.00 0.05 0.00 62 1017.3
20260504044532 10 0.0 0.0 0.00 0.05 0.00 63 1017.2
20260504043519 9 0.0 0.0 0.00 0.08 0.00 65 1017.1
20260504042525 8 0.0 0.0 0.00 0.08 0.00 69 1017.2
20260504041550 8 0.0 0.0 0.00 0.08 0.00 68 1017.1
20260504040517 8 0.0 0.0 0.00 0.08 0.00 72 1016.9
20260504035523 8 0.0 0.0 0.00 0.13 0.00 71 1016.8
20260504034527 8 0.0 0.0 0.00 0.13 0.00 70 1016.9
20260504033515 8 0.0 0.0 0.00 0.13 0.00 70 1016.8
20260504032520 8 0.0 0.0 0.00 0.13 0.00 69 1016.9
20260504031525 8 0.0 0.0 0.00 0.13 0.00 68 1016.9
20260504030531 8 0.0 0.0 0.00 0.13 0.00 67 1016.9
20260504025518 8 0.0 0.0 0.00 0.13 0.00 66 1016.8
20260504024523 8 175 0.0 3.2 0.00 0.13 0.00 66 1016.7
20260504023528 8 140 0.0 8.0 0.00 0.13 0.00 68 1016.7
20260504022517 8 0.0 0.0 0.00 0.15 0.00 68 1016.8
20260504021522 8 0.0 0.0 0.00 0.15 0.00 68 1016.8
20260504020527 8 0.0 0.0 0.00 0.15 0.00 68 1016.8
20260504015532 8 0.0 0.0 0.00 0.15 0.00 68 1016.9
20260504014520 8 0.0 0.0 0.00 0.15 0.00 68 1016.9
20260504013524 8 0.0 0.0 0.00 0.15 0.00 68 1016.8
20260504012529 8 0.0 0.0 0.00 0.18 0.00 68 1016.8
20260504011518 8 0.0 0.0 0.00 0.18 0.00 67 1016.9
20260504010522 8 0.0 0.0 0.00 0.18 0.00 67 1016.8
20260504005527 8 0.0 0.0 0.00 0.18 0.00 66 1016.8
20260504004515 8 0.0 0.0 0.00 0.18 0.00 66 1016.8
20260504003521 8 0.0 0.0 0.00 0.18 0.00 65 1016.9
20260504002525 8 0.0 0.0 0.00 0.18 0.00 64 1016.7
20260504001550 8 0.0 0.0 0.00 0.18 0.00 65 1016.7
20260504000538 8 0.0 0.0 0.00 0.18 0.00 65 1016.8
20260503235523 8 228 0.0 3.2 0.00 0.18 0.00 65 1016.8
20260503234529 8 148 0.0 3.2 0.00 0.18 0.00 65 1016.8
20260503233516 9 211 0.0 3.2 0.00 0.18 0.00 65 1016.8
20260503232522 9 0.0 0.0 0.00 0.18 0.00 65 1016.8
20260503231526 9 0.0 0.0 0.00 0.18 0.00 64 1016.8
20260503230531 8 10 3.2 12.9 0.00 0.18 0.00 64 1016.8
20260503225519 8 0.0 0.0 0.00 0.18 0.00 65 1016.8
20260503224544 9 0.0 0.0 0.00 0.18 0.00 65 1016.8
20260503223530 9 0.0 0.0 0.00 0.18 0.00 65 1016.8
20260503222517 9 0.0 0.0 0.00 0.23 0.00 64 1016.8
20260503221523 9 208 0.0 3.2 0.00 0.23 0.00 64 1016.9
20260503220527 9 0.0 0.0 0.00 0.23 0.00 65 1016.9
20260503215525 10 0.0 0.0 0.00 0.23 0.00 64 1016.9
20260503214550 10 0.0 0.0 0.00 0.23 0.00 63 1016.9
20260503213518 10 18 0.0 8.0 0.00 0.23 0.00 62 1016.9
20260503212523 10 0.0 0.0 0.00 0.23 0.00 63 1016.8
20260503211528 10 0.0 0.0 0.00 0.23 0.00 63 1016.9
20260503210516 10 0.0 0.0 0.00 0.23 0.00 61 1016.9
20260503205522 10 2 1.6 12.9 0.00 0.23 0.23 61 1016.9
20260503204526 10 2 6.4 20.9 0.00 0.23 0.23 61 1016.9
20260503203531 10 0.0 0.0 0.00 0.23 0.23 61 1016.9
20260503202519 10 280 3.2 12.9 0.00 0.23 0.23 60 1017.0
20260503201524 10 301 1.6 8.0 0.00 0.23 0.23 60 1017.0
20260503200530 10 289 1.6 8.0 0.00 0.23 0.23 60 1016.9
20260503195517 11 305 1.6 12.9 0.00 0.23 0.23 59 1017.1
20260503194522 11 330 0.0 8.0 0.00 0.23 0.23 59 1016.9
20260503193527 11 336 1.6 8.0 0.00 0.23 0.23 58 1016.9
20260503192515 11 343 1.6 8.0 0.00 0.23 0.23 57 1016.8
20260503191520 11 2 3.2 20.9 0.00 0.23 0.23 58 1016.9
20260503190525 11 3 3.2 12.9 0.00 0.23 0.23 58 1016.8
20260503185610 11 336 0.0 8.0 0.00 0.23 0.23 58 1016.7
20260503184518 11 9 3.2 12.9 0.00 0.23 0.23 57 1016.7
20260503183543 11 286 0.0 3.2 0.00 0.23 0.23 57 1016.5
20260503182528 11 9 6.4 16.1 0.00 0.23 0.23 56 1016.3
20260503181516 11 6 3.2 16.1 0.00 0.23 0.23 55 1016.1
20260503180521 11 353 4.8 12.9 0.00 0.23 0.23 55 1016.0
20260503175526 11 18 8.0 37.0 0.00 0.23 0.23 55 1015.9
20260503174531 11 7 12.9 27.4 0.00 0.23 0.23 54 1015.8
20260503173539 11 8 9.7 20.9 0.00 0.23 0.23 56 1015.8
20260503172524 11 15 12.9 27.4 0.00 0.23 0.23 55 1015.7
20260503171609 12 13 14.5 27.4 0.00 0.23 0.23 54 1015.6
20260503170517 12 11 14.5 27.4 0.00 0.23 0.23 54 1015.6
20260503150526 13 18 11.3 27.4 0.00 0.23 0.23 51 1015.0
20260503130538 13 19 20.9 40.2 0.00 0.23 0.23 51 1014.5
20260503110527 11 22 11.3 24.1 0.00 0.23 0.23 62 1015.4